BAV201 VVNB-VVTS

Flight info

Callsign BAV201
Flight time 1h 40m
Altitude 34000
Route NAH3A NAH Q1 DOVIN DOVIN5E
Aircraft A321/M-SDE3FGHIRWY/LB1

Departure

Time 2026-05-03 23:21
Airport Noi Bai International Airport (VVNB)

Arrival

Time 2026-05-04 01:01
Airport Tan Son Nhat International Airport (VVTS)
Time Latitude Longitude Altitude Speed Heading
2026-05-03 22:03 21.21491 105.80520 54 ft 0 kts 306°
2026-05-03 23:06 21.21490 105.80520 55 ft 0 kts 306°
2026-05-03 23:07 21.21489 105.80521 55 ft 1 kts 306°
2026-05-03 23:07 21.21481 105.80534 55 ft 2 kts 306°
2026-05-03 23:07 21.21472 105.80547 55 ft 2 kts 300°
2026-05-03 23:08 21.21467 105.80563 55 ft 2 kts 275°
2026-05-03 23:08 21.21468 105.80579 55 ft 2 kts 256°
2026-05-03 23:08 21.21474 105.80593 55 ft 2 kts 236°
2026-05-03 23:08 21.21484 105.80605 55 ft 2 kts 216°
2026-05-03 23:09 21.21497 105.80612 55 ft 2 kts 195°
2026-05-03 23:09 21.21512 105.80616 55 ft 2 kts 198°
2026-05-03 23:09 21.21526 105.80621 54 ft 2 kts 198°
2026-05-03 23:09 21.21540 105.80626 54 ft 2 kts 197°
2026-05-03 23:10 21.21554 105.80630 54 ft 2 kts 198°
2026-05-03 23:10 21.21569 105.80636 53 ft 2 kts 200°
2026-05-03 23:10 21.21582 105.80643 53 ft 2 kts 219°
2026-05-03 23:10 21.21593 105.80654 53 ft 2 kts 233°
2026-05-03 23:11 21.21600 105.80668 53 ft 2 kts 247°
2026-05-03 23:11 21.21605 105.80683 52 ft 2 kts 262°
2026-05-03 23:11 21.21606 105.80699 52 ft 2 kts 276°
2026-05-03 23:11 21.21604 105.80711 52 ft 0 kts 287°
2026-05-03 23:12 21.21601 105.80718 53 ft 0 kts 289°
2026-05-03 23:14 21.21602 105.80715 52 ft 1 kts 288°
2026-05-03 23:14 21.21608 105.80698 52 ft 3 kts 289°
2026-05-03 23:14 21.21621 105.80676 52 ft 4 kts 315°
2026-05-03 23:14 21.21659 105.80665 51 ft 7 kts 22°
2026-05-03 23:15 21.21710 105.80652 51 ft 9 kts 302°
2026-05-03 23:15 21.21734 105.80579 51 ft 11 kts 287°
2026-05-03 23:15 21.21758 105.80492 51 ft 13 kts 287°
2026-05-03 23:15 21.21786 105.80393 51 ft 14 kts 286°
2026-05-03 23:16 21.21817 105.80286 51 ft 15 kts 287°
2026-05-03 23:16 21.21849 105.80168 51 ft 17 kts 287°
2026-05-03 23:16 21.21886 105.80042 49 ft 19 kts 288°
2026-05-03 23:16 21.21928 105.79900 48 ft 20 kts 287°
2026-05-03 23:17 21.21971 105.79754 48 ft 20 kts 288°
2026-05-03 23:17 21.22014 105.79608 48 ft 20 kts 287°
2026-05-03 23:17 21.22054 105.79465 48 ft 19 kts 288°
2026-05-03 23:17 21.22096 105.79325 48 ft 19 kts 288°
2026-05-03 23:18 21.22135 105.79189 48 ft 19 kts 288°
2026-05-03 23:18 21.22175 105.79054 48 ft 18 kts 288°
2026-05-03 23:18 21.22214 105.78921 48 ft 18 kts 287°
2026-05-03 23:18 21.22252 105.78790 48 ft 18 kts 288°
2026-05-03 23:19 21.22288 105.78666 48 ft 11 kts 286°
2026-05-03 23:19 21.22338 105.78607 48 ft 11 kts
2026-05-03 23:19 21.22408 105.78626 48 ft 10 kts 17°
2026-05-03 23:19 21.22457 105.78645 48 ft 4 kts 38°
2026-05-03 23:20 21.22458 105.78674 48 ft 0 kts 106°
2026-05-03 23:20 21.22442 105.78728 48 ft 33 kts 108°
2026-05-03 23:20 21.22299 105.79225 51 ft 104 kts 107°
2026-05-03 23:20 21.22022 105.80181 49 ft 162 kts 107°
2026-05-03 23:21 21.21655 105.81464 321 ft 187 kts 105°
2026-05-03 23:21 21.21284 105.82799 938 ft 192 kts 103°
2026-05-03 23:21 21.20906 105.84172 1475 ft 200 kts 101°
2026-05-03 23:21 21.20499 105.85659 1846 ft 217 kts 101°
2026-05-03 23:22 21.19568 105.89037 2591 ft 254 kts 102°
2026-05-03 23:22 21.19054 105.90864 3291 ft 259 kts 101°
2026-05-03 23:22 21.18535 105.92720 4028 ft 263 kts 103°
2026-05-03 23:23 21.18009 105.94611 4711 ft 268 kts 103°
2026-05-03 23:23 21.17473 105.96526 5350 ft 275 kts 106°
2026-05-03 23:23 21.16605 105.98347 5936 ft 283 kts 133°
2026-05-03 23:23 21.14984 105.99523 6588 ft 283 kts 163°
2026-05-03 23:24 21.13076 105.99895 7282 ft 281 kts 175°
2026-05-03 23:24 21.11161 106.00397 7909 ft 288 kts 164°
2026-05-03 23:24 21.09267 106.01150 8561 ft 292 kts 162°
2026-05-03 23:24 21.07363 106.01932 9178 ft 294 kts 163°
2026-05-03 23:25 21.05447 106.02702 9783 ft 297 kts 164°
2026-05-03 23:25 21.03493 106.03460 10351 ft 301 kts 165°
2026-05-03 23:25 21.01466 106.04227 10657 ft 314 kts 165°
2026-05-03 23:25 20.99357 106.05011 10911 ft 329 kts 165°
2026-05-03 23:26 20.97132 106.05836 11220 ft 340 kts 165°
2026-05-03 23:26 20.94884 106.06669 11731 ft 344 kts 165°
2026-05-03 23:26 20.92617 106.07508 12293 ft 346 kts 165°
2026-05-03 23:26 20.90328 106.08353 12838 ft 348 kts 165°
2026-05-03 23:27 20.88022 106.09205 13376 ft 351 kts 165°
2026-05-03 23:27 20.85715 106.10062 13883 ft 353 kts 164°
2026-05-03 23:27 20.83389 106.10956 14380 ft 356 kts 164°
2026-05-03 23:27 20.81053 106.11866 14849 ft 359 kts 164°
2026-05-03 23:28 20.78703 106.12781 15315 ft 361 kts 164°
2026-05-03 23:28 20.76325 106.13708 15762 ft 364 kts 164°
2026-05-03 23:28 20.73960 106.14627 16209 ft 366 kts 164°
2026-05-03 23:28 20.71531 106.15571 16653 ft 369 kts 164°
2026-05-03 23:29 20.69137 106.16502 17069 ft 371 kts 164°
2026-05-03 23:29 20.66678 106.17457 17475 ft 373 kts 164°
2026-05-03 23:29 20.64238 106.18402 17866 ft 376 kts 164°
2026-05-03 23:29 20.61756 106.19365 18244 ft 379 kts 164°
2026-05-03 23:30 20.59292 106.20321 18639 ft 380 kts 165°
2026-05-03 23:30 20.56795 106.21287 19016 ft 382 kts 164°
2026-05-03 23:30 20.54292 106.22257 19374 ft 384 kts 164°
2026-05-03 23:30 20.51777 106.23231 19737 ft 386 kts 164°
2026-05-03 23:31 20.49234 106.24216 20105 ft 388 kts 164°
2026-05-03 23:31 20.46685 106.25201 20459 ft 390 kts 164°
2026-05-03 23:31 20.44145 106.26184 20805 ft 391 kts 164°
2026-05-03 23:31 20.41570 106.27179 21151 ft 393 kts 164°
2026-05-03 23:32 20.38972 106.28184 21492 ft 395 kts 164°
2026-05-03 23:32 20.36388 106.29181 21813 ft 397 kts 164°
2026-05-03 23:32 20.33807 106.30177 22135 ft 398 kts 164°
2026-05-03 23:32 20.31169 106.31196 22454 ft 400 kts 163°
2026-05-03 23:33 20.28562 106.32201 22775 ft 402 kts 163°
2026-05-03 23:33 20.25911 106.33225 23088 ft 404 kts 163°
2026-05-03 23:33 20.23275 106.34240 23395 ft 406 kts 163°
2026-05-03 23:33 20.20621 106.35262 23687 ft 408 kts 163°
2026-05-03 23:34 20.17914 106.36305 23989 ft 410 kts 163°
2026-05-03 23:34 20.15237 106.37336 24286 ft 413 kts 163°
2026-05-03 23:34 20.12531 106.38377 24577 ft 415 kts 163°
2026-05-03 23:34 20.09827 106.39418 24876 ft 417 kts 163°
2026-05-03 23:35 20.07089 106.40472 25174 ft 418 kts 163°
2026-05-03 23:35 20.04327 106.41534 25465 ft 420 kts 163°
2026-05-03 23:35 20.01579 106.42591 25759 ft 422 kts 163°
2026-05-03 23:35 19.98807 106.43657 26041 ft 424 kts 163°
2026-05-03 23:36 19.96015 106.44730 26322 ft 425 kts 163°
2026-05-03 23:36 19.93216 106.45805 26596 ft 427 kts 163°
2026-05-03 23:36 19.90438 106.46872 26851 ft 429 kts 163°
2026-05-03 23:36 19.87607 106.47957 27112 ft 431 kts 163°
2026-05-03 23:37 19.84784 106.49040 27377 ft 432 kts 163°
2026-05-03 23:37 19.81954 106.50124 27636 ft 434 kts 163°
2026-05-03 23:37 19.79110 106.51215 27880 ft 436 kts 162°
2026-05-03 23:37 19.76237 106.52316 28127 ft 437 kts 162°
2026-05-03 23:38 19.73358 106.53419 28368 ft 439 kts 162°
2026-05-03 23:38 19.70466 106.54526 28593 ft 441 kts 162°
2026-05-03 23:38 19.67593 106.55625 28826 ft 443 kts 162°
2026-05-03 23:38 19.64677 106.56742 29055 ft 445 kts 162°
2026-05-03 23:39 19.61735 106.57867 29286 ft 447 kts 162°
2026-05-03 23:39 19.58814 106.58983 29530 ft 448 kts 162°
2026-05-03 23:39 19.55899 106.60098 29851 ft 448 kts 162°
2026-05-03 23:39 19.52947 106.61227 30190 ft 447 kts 162°
2026-05-03 23:40 19.50021 106.62344 30500 ft 447 kts 162°
2026-05-03 23:40 19.47101 106.63458 30760 ft 448 kts 163°
2026-05-03 23:40 19.44156 106.64582 30994 ft 449 kts 162°
2026-05-03 23:40 19.41235 106.65695 31222 ft 451 kts 163°
2026-05-03 23:41 19.38248 106.66834 31461 ft 452 kts 163°
2026-05-03 23:41 19.35315 106.67951 31695 ft 453 kts 163°
2026-05-03 23:41 19.32343 106.69084 31924 ft 454 kts 163°
2026-05-03 23:41 19.29340 106.70228 31994 ft 455 kts 163°
2026-05-03 23:42 19.23389 106.72493 32001 ft 456 kts 163°
2026-05-03 23:42 19.17389 106.74775 32001 ft 456 kts 163°
2026-05-03 23:43 19.11437 106.77037 32002 ft 456 kts 163°
2026-05-03 23:43 19.05470 106.79303 31999 ft 456 kts 163°
2026-05-03 23:44 18.99481 106.81576 31997 ft 456 kts 163°
2026-05-03 23:44 18.93475 106.83858 31994 ft 456 kts 163°
2026-05-03 23:45 18.87520 106.86114 31995 ft 456 kts 163°
2026-05-03 23:45 18.81617 106.88612 31992 ft 458 kts 159°
2026-05-03 23:46 18.75758 106.91341 31989 ft 459 kts 159°
2026-05-03 23:46 18.69918 106.94068 31990 ft 459 kts 159°
2026-05-03 23:47 18.64061 106.96797 31985 ft 459 kts 159°
2026-05-03 23:47 18.58241 106.99504 31983 ft 458 kts 159°
2026-05-03 23:48 18.52377 107.02232 31982 ft 458 kts 159°
2026-05-03 23:48 18.46531 107.04948 31983 ft 459 kts 159°
2026-05-03 23:49 18.40717 107.07646 31979 ft 459 kts 159°
2026-05-03 23:49 18.34877 107.10358 31977 ft 458 kts 159°
2026-05-03 23:50 18.29984 107.12630 31976 ft 459 kts 159°
2026-05-03 23:50 18.23182 107.15787 31974 ft 458 kts 159°
2026-05-03 23:51 18.17337 107.18501 31977 ft 459 kts 159°
2026-05-03 23:51 18.11509 107.21202 31975 ft 460 kts 159°
2026-05-03 23:52 18.05648 107.23920 31976 ft 460 kts 159°
2026-05-03 23:52 17.99727 107.26457 31974 ft 456 kts 165°
2026-05-03 23:53 17.93608 107.28373 31977 ft 456 kts 166°
2026-05-03 23:53 17.87552 107.30247 31976 ft 456 kts 166°
2026-05-03 23:54 17.81460 107.32162 31977 ft 456 kts 166°
2026-05-03 23:54 17.75377 107.34087 31982 ft 455 kts 166°
2026-05-03 23:55 17.69296 107.36014 31976 ft 455 kts 166°
2026-05-03 23:55 17.63216 107.37942 31980 ft 455 kts 166°
2026-05-03 23:56 17.57140 107.39867 31980 ft 456 kts 166°
2026-05-03 23:56 17.51075 107.41788 31976 ft 456 kts 166°
2026-05-03 23:57 17.44967 107.43720 31978 ft 456 kts 166°
2026-05-03 23:57 17.38899 107.45637 31977 ft 456 kts 166°
2026-05-03 23:58 17.32832 107.47555 31969 ft 455 kts 166°
2026-05-03 23:58 17.26760 107.49472 31971 ft 455 kts 166°
2026-05-03 23:59 17.20670 107.51394 31968 ft 455 kts 166°
2026-05-03 23:59 17.14584 107.53312 31963 ft 455 kts 166°
2026-05-04 00:00 17.08514 107.55225 31965 ft 455 kts 166°
2026-05-04 00:00 17.02456 107.57134 31961 ft 455 kts 166°
2026-05-04 00:01 16.96389 107.59043 31963 ft 455 kts 166°
2026-05-04 00:01 16.90321 107.60951 31961 ft 455 kts 166°
2026-05-04 00:02 16.84249 107.62857 31963 ft 455 kts 166°
2026-05-04 00:02 16.78161 107.64768 31965 ft 455 kts 166°
2026-05-04 00:03 16.72115 107.66666 31974 ft 455 kts 166°
2026-05-04 00:03 16.66048 107.68569 31983 ft 455 kts 166°
2026-05-04 00:04 16.59969 107.70473 31982 ft 454 kts 166°
2026-05-04 00:04 16.53937 107.72363 31982 ft 454 kts 166°
2026-05-04 00:05 16.47859 107.74264 31986 ft 454 kts 166°
2026-05-04 00:05 16.41785 107.76164 31995 ft 454 kts 166°
2026-05-04 00:06 16.35756 107.78050 32011 ft 454 kts 166°
2026-05-04 00:06 16.29705 107.79940 32017 ft 454 kts 166°
2026-05-04 00:07 16.23631 107.81835 32023 ft 454 kts 166°
2026-05-04 00:07 16.17558 107.83730 32026 ft 455 kts 166°
2026-05-04 00:08 16.11496 107.85620 32036 ft 455 kts 165°
2026-05-04 00:08 16.05406 107.87517 32051 ft 455 kts 165°
2026-05-04 00:09 15.99349 107.89404 32068 ft 455 kts 165°
2026-05-04 00:09 15.93284 107.91292 32069 ft 455 kts 165°
2026-05-04 00:10 15.87222 107.93178 32052 ft 455 kts 165°
2026-05-04 00:10 15.81127 107.95073 32029 ft 454 kts 165°
2026-05-04 00:11 15.75091 107.96949 32015 ft 454 kts 165°
2026-05-04 00:11 15.69025 107.98832 32007 ft 454 kts 165°
2026-05-04 00:12 15.62925 108.00723 32013 ft 455 kts 165°
2026-05-04 00:12 15.56827 108.02613 32019 ft 456 kts 165°
2026-05-04 00:13 15.50762 108.04494 32027 ft 456 kts 165°
2026-05-04 00:13 15.44693 108.06374 32033 ft 455 kts 165°
2026-05-04 00:14 15.38625 108.08252 32045 ft 455 kts 165°
2026-05-04 00:14 15.32554 108.10131 32073 ft 455 kts 165°
2026-05-04 00:15 15.26478 108.12011 32086 ft 455 kts 165°
2026-05-04 00:15 15.20377 108.13898 32114 ft 455 kts 165°
2026-05-04 00:16 15.14291 108.15742 32136 ft 454 kts 167°
2026-05-04 00:16 15.08121 108.17020 32160 ft 452 kts 174°
2026-05-04 00:17 15.01828 108.17545 32179 ft 450 kts 181°
2026-05-04 00:17 14.95562 108.17461 32199 ft 450 kts 183°
2026-05-04 00:18 14.89296 108.17310 32200 ft 449 kts 184°
2026-05-04 00:18 14.83016 108.17167 32191 ft 449 kts 184°
2026-05-04 00:19 14.76758 108.17027 32187 ft 449 kts 183°
2026-05-04 00:19 14.70524 108.16890 32175 ft 448 kts 184°
2026-05-04 00:20 14.64266 108.16751 32160 ft 447 kts 184°
2026-05-04 00:20 14.58033 108.16615 32132 ft 447 kts 184°
2026-05-04 00:21 14.51821 108.16477 32114 ft 447 kts 183°
2026-05-04 00:21 14.45615 108.16341 32108 ft 446 kts 183°
2026-05-04 00:22 14.39374 108.16205 32095 ft 446 kts 184°
2026-05-04 00:22 14.33176 108.16069 32100 ft 446 kts 183°
2026-05-04 00:23 14.26947 108.15933 32101 ft 445 kts 183°
2026-05-04 00:23 14.20738 108.15800 32105 ft 445 kts 184°
2026-05-04 00:24 14.14535 108.15667 32103 ft 444 kts 183°
2026-05-04 00:24 14.08338 108.15535 32095 ft 444 kts 183°
2026-05-04 00:25 14.02184 108.15405 32086 ft 443 kts 183°
2026-05-04 00:25 13.95971 108.15269 32078 ft 443 kts 183°
2026-05-04 00:26 13.89818 108.15134 32074 ft 444 kts 183°
2026-05-04 00:26 13.83643 108.14997 32061 ft 444 kts 183°
2026-05-04 00:27 13.77456 108.14864 32060 ft 443 kts 183°
2026-05-04 00:27 13.71263 108.14726 32046 ft 443 kts 183°
2026-05-04 00:28 13.65101 108.14590 32038 ft 443 kts 183°
2026-05-04 00:28 13.58921 108.14455 32030 ft 443 kts 183°
2026-05-04 00:29 13.52748 108.14321 32022 ft 444 kts 183°
2026-05-04 00:29 13.46550 108.14185 32017 ft 444 kts 183°
2026-05-04 00:30 13.40370 108.14052 32016 ft 443 kts 183°
2026-05-04 00:30 13.34173 108.13916 32017 ft 443 kts 182°
2026-05-04 00:31 13.27983 108.13769 32025 ft 444 kts 182°
2026-05-04 00:31 13.21803 108.13620 32029 ft 444 kts 182°
2026-05-04 00:32 13.15600 108.13470 32029 ft 444 kts 183°
2026-05-04 00:32 13.09440 108.13319 32027 ft 445 kts 182°
2026-05-04 00:33 13.00115 108.13097 32027 ft 444 kts 182°
2026-05-04 00:34 12.93938 108.12949 32024 ft 445 kts 182°
2026-05-04 00:34 12.87746 108.12803 32023 ft 445 kts 182°
2026-05-04 00:35 12.81507 108.12654 32025 ft 445 kts 182°
2026-05-04 00:35 12.75328 108.12505 32024 ft 446 kts 182°
2026-05-04 00:36 12.69105 108.12357 32028 ft 447 kts 182°
2026-05-04 00:36 12.62854 108.12060 32020 ft 446 kts 190°
2026-05-04 00:37 12.56966 108.10170 32027 ft 444 kts 207°
2026-05-04 00:37 12.51495 108.07202 32024 ft 443 kts 210°
2026-05-04 00:38 12.47480 108.04973 32023 ft 444 kts 210°
2026-05-04 00:38 12.44221 108.03175 32025 ft 444 kts 210°
2026-05-04 00:39 12.38769 108.00178 32036 ft 445 kts 209°
2026-05-04 00:39 12.33296 107.97185 32040 ft 445 kts 210°
2026-05-04 00:40 12.27851 107.94210 32062 ft 445 kts 210°
2026-05-04 00:40 12.22350 107.91206 32082 ft 446 kts 210°
2026-05-04 00:41 12.16855 107.88207 32091 ft 447 kts 210°
2026-05-04 00:41 12.11353 107.85207 32093 ft 448 kts 210°
2026-05-04 00:42 12.05871 107.82217 32080 ft 448 kts 210°
2026-05-04 00:42 12.03073 107.80692 31845 ft 461 kts 210°
2026-05-04 00:42 12.00223 107.79137 31599 ft 472 kts 209°
2026-05-04 00:42 11.97284 107.77534 31340 ft 476 kts 209°
2026-05-04 00:43 11.94383 107.75954 31000 ft 478 kts 209°
2026-05-04 00:43 11.91455 107.74360 30426 ft 477 kts 208°
2026-05-04 00:43 11.88517 107.72758 29746 ft 473 kts 208°
2026-05-04 00:43 11.85609 107.71173 28999 ft 471 kts 207°
2026-05-04 00:44 11.82735 107.69608 28213 ft 469 kts 207°
2026-05-04 00:44 11.79855 107.68044 27372 ft 469 kts 207°
2026-05-04 00:44 11.76963 107.66476 26461 ft 470 kts 207°
2026-05-04 00:44 11.74111 107.64928 25567 ft 470 kts 207°
2026-05-04 00:45 11.71224 107.63361 24907 ft 464 kts 207°
2026-05-04 00:45 11.68377 107.61815 24263 ft 459 kts 207°
2026-05-04 00:45 11.65584 107.60298 23634 ft 453 kts 207°
2026-05-04 00:45 11.62809 107.58791 23020 ft 448 kts 207°
2026-05-04 00:46 11.60090 107.57314 22403 ft 444 kts 207°
2026-05-04 00:46 11.57382 107.55845 21782 ft 440 kts 207°
2026-05-04 00:46 11.54677 107.54376 21151 ft 437 kts 207°
2026-05-04 00:46 11.52012 107.52930 20524 ft 433 kts 207°
2026-05-04 00:47 11.49332 107.51477 19900 ft 430 kts 207°
2026-05-04 00:47 11.46722 107.50062 19299 ft 427 kts 207°
2026-05-04 00:47 11.44117 107.48650 18708 ft 423 kts 207°
2026-05-04 00:47 11.41529 107.47245 18124 ft 419 kts 207°
2026-05-04 00:48 11.38987 107.45833 17601 ft 414 kts 211°
2026-05-04 00:48 11.36825 107.43960 17253 ft 406 kts 226°
2026-05-04 00:48 11.34976 107.41763 16547 ft 408 kts 230°
2026-05-04 00:48 11.33203 107.39532 15857 ft 409 kts 230°
2026-05-04 00:49 11.31400 107.37294 15297 ft 405 kts 229°
2026-05-04 00:49 11.29595 107.35100 14762 ft 401 kts 229°
2026-05-04 00:49 11.27805 107.32956 14213 ft 398 kts 228°
2026-05-04 00:49 11.25996 107.30815 13650 ft 395 kts 228°
2026-05-04 00:50 11.24225 107.28732 13100 ft 391 kts 228°
2026-05-04 00:50 11.22448 107.26647 12631 ft 385 kts 228°
2026-05-04 00:50 11.20712 107.24614 12243 ft 377 kts 228°
2026-05-04 00:50 11.18999 107.22611 11815 ft 369 kts 228°
2026-05-04 00:51 11.17336 107.20668 11404 ft 359 kts 228°
2026-05-04 00:51 11.15704 107.18761 10952 ft 351 kts 228°
2026-05-04 00:51 11.14126 107.16917 10479 ft 345 kts 228°
2026-05-04 00:51 11.12564 107.15094 10011 ft 339 kts 228°
2026-05-04 00:52 11.11024 107.13296 9560 ft 334 kts 228°
2026-05-04 00:52 11.09519 107.11540 9130 ft 328 kts 228°
2026-05-04 00:52 11.08021 107.09795 8685 ft 318 kts 228°
2026-05-04 00:52 11.06589 107.08125 8178 ft 308 kts 228°
2026-05-04 00:53 11.05205 107.06512 7665 ft 300 kts 229°
2026-05-04 00:53 11.03848 107.04932 7169 ft 295 kts 229°
2026-05-04 00:53 11.02512 107.03374 6658 ft 289 kts 229°
2026-05-04 00:53 11.01211 107.01857 6140 ft 284 kts 230°
2026-05-04 00:54 10.99922 107.00353 5614 ft 280 kts 229°
2026-05-04 00:54 10.98658 106.98877 5146 ft 273 kts 229°
2026-05-04 00:54 10.97428 106.97441 4767 ft 263 kts 229°
2026-05-04 00:54 10.96254 106.96072 4384 ft 254 kts 229°
2026-05-04 00:55 10.95105 106.94733 4048 ft 246 kts 229°
2026-05-04 00:55 10.94014 106.93462 3975 ft 231 kts 229°
2026-05-04 00:55 10.93007 106.92288 4036 ft 211 kts 229°
2026-05-04 00:55 10.92038 106.91161 4012 ft 209 kts 229°
2026-05-04 00:56 10.91171 106.89982 3980 ft 207 kts 245°
2026-05-04 00:56 10.90668 106.88601 3809 ft 207 kts 254°
2026-05-04 00:56 10.90268 106.87265 3759 ft 195 kts 254°
2026-05-04 00:56 10.89845 106.85937 3748 ft 195 kts 252°
2026-05-04 00:57 10.89399 106.84638 3580 ft 195 kts 251°
2026-05-04 00:57 10.88929 106.83346 3332 ft 194 kts 250°
2026-05-04 00:57 10.88453 106.82075 3080 ft 189 kts 250°
2026-05-04 00:57 10.87991 106.80856 2836 ft 183 kts 249°
2026-05-04 00:58 10.87537 106.79665 2604 ft 180 kts 249°
2026-05-04 00:58 10.87087 106.78481 2385 ft 180 kts 249°
2026-05-04 00:58 10.86633 106.77284 2168 ft 180 kts 248°
2026-05-04 00:58 10.86187 106.76107 1942 ft 180 kts 248°
2026-05-04 00:59 10.85739 106.74924 1719 ft 179 kts 248°
2026-05-04 00:59 10.85288 106.73731 1522 ft 180 kts 247°
2026-05-04 00:59 10.84850 106.72570 1272 ft 170 kts 247°
2026-05-04 00:59 10.84438 106.71481 1039 ft 164 kts 248°
2026-05-04 01:00 10.84029 106.70388 851 ft 162 kts 248°
2026-05-04 01:00 10.83635 106.69331 668 ft 161 kts 247°
2026-05-04 01:00 10.83224 106.68269 441 ft 160 kts 248°
2026-05-04 01:00 10.82832 106.67218 242 ft 158 kts 248°
2026-05-04 01:01 10.82435 106.66177 59 ft 156 kts 248°
2026-05-04 01:01 10.82081 106.65247 30 ft 111 kts 248°
2026-05-04 01:01 10.81893 106.64748 28 ft 52 kts 249°
2026-05-04 01:01 10.81794 106.64487 25 ft 33 kts 247°
2026-05-04 01:02 10.81666 106.64352 25 ft 13 kts 217°
2026-05-04 01:02 10.81605 106.64307 25 ft 8 kts 213°
2026-05-04 01:02 10.81543 106.64297 25 ft 9 kts 168°
2026-05-04 01:02 10.81475 106.64317 25 ft 10 kts 162°
2026-05-04 01:03 10.81404 106.64343 25 ft 11 kts 159°
2026-05-04 01:03 10.81328 106.64372 25 ft 12 kts 159°
2026-05-04 01:03 10.81254 106.64414 25 ft 12 kts 118°
2026-05-04 01:03 10.81268 106.64499 25 ft 12 kts 69°
2026-05-04 01:04 10.81301 106.64586 25 ft 13 kts 69°
2026-05-04 01:04 10.81335 106.64676 25 ft 13 kts 69°
2026-05-04 01:04 10.81370 106.64769 25 ft 14 kts 70°
2026-05-04 01:04 10.81407 106.64864 25 ft 14 kts 70°
2026-05-04 01:05 10.81441 106.64954 25 ft 4 kts 68°
2026-05-04 01:05 10.81442 106.64956 25 ft 0 kts 68°
2026-05-04 01:05 10.81443 106.64958 25 ft 1 kts 68°
2026-05-04 01:05 10.81448 106.64979 25 ft 4 kts 83°
2026-05-04 01:06 10.81426 106.65011 25 ft 7 kts 157°
2026-05-04 01:06 10.81377 106.65030 25 ft 7 kts 159°
2026-05-04 01:06 10.81330 106.65048 25 ft 7 kts 159°
2026-05-04 01:06 10.81288 106.65064 26 ft 5 kts 159°
2026-05-04 01:07 10.81254 106.65079 27 ft 4 kts 144°
2026-05-04 01:07 10.81242 106.65108 27 ft 4 kts 85°
2026-05-04 01:07 10.81252 106.65143 27 ft 5 kts 71°
2026-05-04 01:07 10.81267 106.65184 27 ft 6 kts 69°
2026-05-04 01:08 10.81282 106.65228 27 ft 6 kts 69°
2026-05-04 01:08 10.81298 106.65269 28 ft 6 kts 69°
2026-05-04 01:08 10.81313 106.65308 28 ft 5 kts 69°
2026-05-04 01:08 10.81322 106.65346 29 ft 4 kts 111°
2026-05-04 01:09 10.81296 106.65359 29 ft 3 kts 159°
2026-05-04 01:09 10.81284 106.65363 29 ft 0 kts 159°